Regional Weather Roundup
Issued by NWS Cleveland, OH

Home | Current Version | Previous Version | Text Only | Print | Product List | Glossary Off
Versions: 1 2 3 4 5 6 7 8 9 10 11 12 13 14 15 16 17 18 19 20 21 22 23 24 25 26 27 28 29 30 31 32 33 34 35 36 37 38 39 40 41 42 43 44 45 46 47 48 49 50

000
ASUS41 KCLE 031100
RWRCLE
OHIO REGIONAL WEATHER ROUNDUP
NATIONAL WEATHER SERVICE WILMINGTON, OH
600 AM EST SAT DEC 03 2016

NOTE: "FAIR" INDICATES FEW OR NO CLOUDS BELOW 12,000 FEET WITH NO
SIGNIFICANT WEATHER AND/OR OBSTRUCTIONS TO VISIBILITY.

OHZ001>008-015>018-024>027-034-035-043-044-031200-
   NORTHWEST OHIO

CITY           SKY/WX    TMP DP  RH WIND       PRES   REMARKS
DEFIANCE       CLOUDY    36  28  73 CALM      30.31R
FINDLAY        CLOUDY    34  28  79 W6        30.29R WCI  29
TOLEDO EXPRESS CLOUDY    35  30  82 W7        30.29R WCI  29
TOLEDO EXEC    CLOUDY    36  31  82 W6        30.30R
LIMA           CLOUDY    35  29  78 W7        30.30R WCI  29
$$

OHZ009>014-019>023-028>033-038-089-031200-
   NORTHEAST OHIO

CITY           SKY/WX    TMP DP  RH WIND       PRES   REMARKS
CLE-HOPKINS    CLOUDY    39  30  70 NW9       30.28S
CLE-LAKEFRONT  CLOUDY    39  31  72 W12       30.25S
CUY CO. ARPT   NOT AVBL
LORAIN-ELYRIA  CLOUDY    35  27  72 W7        30.27S WCI  29
ASHTABULA      CLOUDY    38  33  82 NW7       30.22S
AKRON-CANTON   CLOUDY    36  28  73 W7        30.25S
WOOSTER        NOT AVBL
MANSFIELD      CLOUDY    31  27  85 W6        30.27R WCI  25
YOUNGSTOWN     CLOUDY    35  29  78 W8        30.22R WCI  29
$$

OHZ042-051>053-060>062-070>072-077>081-031200-
  SOUTHWEST OHIO

CITY           SKY/WX    TMP DP  RH WIND       PRES   REMARKS
CINC-COVINGTON CLOUDY    36  34  92 SW3       30.33S
CINC-LUNKEN    CLOUDY    38  34  85 CALM      30.36S
HAMILTON       CLOUDY    38  33  82 NW5       30.35S
DAYTON         NOT AVBL
WRIGHT-PAT AFB CLOUDY    37  31  79 W6        30.32R
DAYTON GENERAL CLOUDY    37  31  78 W5        30.31S
WILMINGTON     CLOUDY    36  32  85 W6        30.31
$$

OHZ036-037-039>041-045>050-054>059-063>069-073>076-082>088-031200-
  CENTRAL AND SOUTHEAST OHIO

CITY           SKY/WX    TMP DP  RH WIND       PRES   REMARKS
COLUMBUS       CLOUDY    35  33  92 W3        30.30R
OSU AIRPORT    CLOUDY    36  32  85 W8        30.30R
BOLTON FIELD   NOT AVBL
RICKENBACK AFB NOT AVBL
NEWARK         CLOUDY    27  24  89 CALM      30.30
MARION         CLOUDY    30  25  81 W3        30.30R
LANCASTER      CLOUDY    33  32  96 CALM      30.31R
ZANESVILLE     FAIR      30  24  78 W3        30.30R
NEW PHILLY     CLOUDY    36  29  75 NW7       30.28R
$$



USA.gov is the U.S. government's official web portal to all federal, state and local government web resources and services.